Tracking 27122 objects as of 26-Mar-2023
HD Live streaming from Space Station
objects crossing your sky now

STARLINK-1645

Track STARLINK-1645 now!
10-day predictions
STARLINK-1645 is classified as:


NORAD ID: 47622
Int'l Code: 2021-012C
Perigee: 553.9 km
Apogee: 555.3 km
Inclination: 53.1 °
Period: 95.6 minutes
Semi major axis: 6925 km
RCS: Unknown
Launch date: February 16, 2021
Source: United States (US)
Launch site: AIR FORCE EASTERN TEST RANGE (AFETR)
Your satellite tracking list
Your tracking list is empty




NASA's NSSDC Master Catalog

Two Line Element Set (TLE):
1 47622U 21012C   23084.71781390  .00005060  00000-0  35907-3 0  9998
2 47622  53.0525 239.7912 0001040  75.2288 284.8816 15.06323427117204
Source of the keplerian elements: AFSPC